This is the latest recevied weather packets stored in our database for station/object N0NPO. If no packets are shown the sender has not sent any weather packets the latest 10 day(s).
| Time | Temp. | Humidity | Pressure | Rain* | Wind** | Luminosity | Snow |
|---|---|---|---|---|---|---|---|
| 1777770805 | 20° C | 1% | 1013 hPa | 0 mm | - | 28 W/m² | - |
| 1777770502 | 20° C | 1% | 1012.9 hPa | 0 mm | - | 37 W/m² | - |
| 1777770199 | 20.56° C | 1% | 1013.2 hPa | 0 mm | - | 42 W/m² | - |
| 1777769896 | 20.56° C | 1% | 1013 hPa | 0 mm | - | 42 W/m² | - |
| 1777769593 | 20.56° C | 1% | 1012.7 hPa | 0 mm | - | 64 W/m² | - |
| 1777769290 | 20.56° C | 1% | 1012.6 hPa | 0 mm | - | 62 W/m² | - |
| 1777768987 | 21.67° C | 1% | 1012.5 hPa | 0 mm | - | 83 W/m² | - |
| 1777768684 | 21.67° C | 1% | 1012.5 hPa | 0 mm | - | 100 W/m² | - |
| 1777768381 | 21.67° C | 1% | 1012.4 hPa | 0 mm | - | 99 W/m² | - |
| 1777768078 | 21.67° C | 1% | 1012.4 hPa | 0 mm | - | 73 W/m² | - |
| 1777767775 | 22.22° C | 1% | 1012.4 hPa | 0 mm | - | 57 W/m² | - |
| 1777767471 | 22.22° C | 1% | 1012.6 hPa | 0 mm | - | 76 W/m² | - |
| 1777767168 | 22.78° C | 1% | 1012.3 hPa | 0 mm | - | 93 W/m² | - |
| 1777766865 | 21.67° C | 1% | 1012.3 hPa | 0 mm | - | 72 W/m² | - |
| 1777766562 | 21.67° C | 1% | 1012.4 hPa | 0 mm | - | 88 W/m² | - |
| 1777766259 | 21.67° C | 1% | 1012.4 hPa | 0 mm | - | 89 W/m² | - |
| 1777765957 | 21.67° C | 1% | 1012.4 hPa | 0 mm | - | 86 W/m² | - |
| 1777765653 | 21.67° C | 1% | 1012.2 hPa | 0 mm | - | 203 W/m² | - |
| 1777765351 | 21.67° C | 1% | 1012.5 hPa | 0 mm | - | 250 W/m² | - |
| 1777765046 | 21.11° C | 1% | 1012.6 hPa | 0 mm | - | 131 W/m² | - |
| 1777764744 | 21.67° C | 1% | 1012.6 hPa | 0 mm | - | 124 W/m² | - |
| 1777764439 | 22.22° C | 1% | 1012.6 hPa | 0 mm | - | 188 W/m² | - |
| 1777764136 | 22.22° C | 1% | 1012.6 hPa | 0 mm | - | 252 W/m² | - |
| 1777763833 | 22.22° C | 1% | 1012.6 hPa | 0 mm | - | 311 W/m² | - |
| 1777763531 | 22.22° C | 1% | 1012.6 hPa | 0 mm | - | 161 W/m² | - |
* Rain latest hour (hover to see other rain measurements)
** Current wind speed in m/s (hover to see current wind gust speed)